FW2444 Weather Reports


time (UTC)temp
C
wind
direction
speed
KPH
gust
KPH
rain 1hr
cm
rain 24hr
cm
rain mn
cm
humidity
%
barometer
mb
20260506231535 23 270 0.0 0.0 0.00 0.00 0.00 37 1017.5
20260506230036 24 270 0.0 0.0 0.00 0.00 0.00 37 1017.5
20260506224537 25 270 0.0 0.0 0.00 0.00 0.00 35 1017.6
20260506223031 24 270 0.0 0.0 0.00 0.00 0.00 35 1017.7
20260506221531 25 270 0.0 0.0 0.00 0.00 0.00 33 1017.9
20260506220033 24 270 0.0 0.0 0.00 0.00 0.00 33 1018.2
20260506214524 24 270 0.0 0.0 0.00 0.00 0.00 34 1018.4
20260506213020 23 270 0.0 0.0 0.00 0.00 0.00 35 1018.6
20260506211521 23 270 0.0 0.0 0.00 0.00 0.00 36 1018.8
20260506210018 23 270 0.0 0.0 0.00 0.00 0.00 35 1019.0
20260506204514 22 270 0.0 0.0 0.00 0.00 0.00 36 1019.1
20260506203011 22 270 0.0 0.0 0.00 0.00 0.00 36 1019.3
20260506201510 22 270 0.0 0.0 0.00 0.00 0.00 38 1019.5
20260506200009 22 270 0.0 0.0 0.00 0.00 0.00 37 1019.7
20260506194508 21 270 0.0 0.0 0.00 0.00 0.00 38 1019.8
20260506193005 21 270 0.0 0.0 0.00 0.00 0.00 39 1020.0
20260506191602 22 270 0.0 0.0 0.00 0.00 0.00 39 1020.3
20260506190058 21 271 0.0 0.0 0.00 0.00 0.00 42 1020.4
20260506184600 20 270 0.0 0.0 0.00 0.00 0.00 43 1020.5
20260506183054 18 270 0.0 0.0 0.00 0.00 0.00 45 1020.6
20260506181551 19 270 0.0 0.0 0.00 0.00 0.00 45 1020.6
20260506180048 18 270 0.0 0.0 0.00 0.00 0.00 44 1020.7
20260506174545 18 270 0.0 0.0 0.00 0.00 0.00 47 1020.8
20260506173059 17 270 0.0 0.0 0.00 0.00 0.00 47 1020.7
20260506171551 17 270 0.0 0.0 0.00 0.00 0.00 49 1020.7
20260506170040 16 270 0.0 0.0 0.00 0.00 0.00 50 1020.6
20260506164537 15 270 0.0 0.0 0.00 0.00 0.00 51 1020.6
20260506163049 15 270 0.0 0.0 0.00 0.00 0.00 50 1020.5
20260506161540 15 270 0.0 0.0 0.00 0.00 0.00 50 1020.5
20260506160034 14 270 0.0 0.0 0.00 0.00 0.00 50 1020.6
20260506154536 13 270 0.0 0.0 0.00 0.00 0.00 51 1020.5
20260506153026 13 270 0.0 0.0 0.00 0.00 0.00 52 1020.5
20260506151523 12 270 0.0 0.0 0.00 0.00 0.00 53 1020.6
20260506150020 12 270 0.0 0.0 0.00 0.00 0.00 54 1020.6
20260506144517 12 270 0.0 0.0 0.00 0.00 0.00 55 1020.6
20260506143017 11 270 0.0 0.0 0.00 0.00 0.00 56 1020.6
20260506141514 11 270 0.0 0.0 0.00 0.00 0.00 56 1020.5
20260506140014 10 270 0.0 0.0 0.00 0.00 0.00 57 1020.4
20260506134513 10 270 0.0 0.0 0.00 0.00 0.00 57 1020.3
20260506133011 10 270 0.0 0.0 0.00 0.00 0.00 56 1020.1
20260506131513 10 270 0.0 0.0 0.00 0.00 0.00 57 1019.9
20260506130010 9 270 0.0 0.0 0.00 0.00 0.00 57 1019.8
20260506124508 10 270 0.0 0.0 0.00 0.00 0.00 57 1019.7
20260506123007 10 270 0.0 0.0 0.00 0.00 0.00 57 1019.7
20260506121506 10 270 0.0 0.0 0.00 0.00 0.00 58 1019.4
20260506120004 10 270 0.0 0.0 0.00 0.00 0.00 58 1019.4
20260506114503 10 270 0.0 0.0 0.00 0.00 0.00 58 1019.3
20260506113003 10 270 0.0 0.0 0.00 0.00 0.00 58 1019.3
20260506111502 10 270 0.0 0.0 0.00 0.00 0.00 58 1019.2
20260506110005 10 270 0.0 0.0 0.00 0.00 0.00 57 1019.2
20260506104600 10 270 0.0 0.0 0.00 0.00 0.00 57 1019.2
20260506103100 10 270 0.0 0.0 0.00 0.00 0.00 58 1019.2
20260506101559 10 270 0.0 0.0 0.00 0.00 0.00 58 1019.1
20260506100057 10 270 0.0 0.0 0.00 0.00 0.00 58 1019.2
20260506094557 10 270 0.0 0.0 0.00 0.00 0.00 58 1019.2
20260506093111 10 270 0.0 0.0 0.00 0.00 0.00 58 1019.2
20260506091554 10 270 0.0 0.0 0.00 0.00 0.00 58 1019.3
20260506090057 10 270 0.0 0.0 0.00 0.00 0.00 58 1019.4
20260506084554 11 270 0.0 0.0 0.00 0.00 0.00 57 1019.6
20260506083049 11 270 0.0 0.0 0.00 0.00 0.00 58 1019.7
20260506081545 11 270 0.0 0.0 0.00 0.00 0.00 57 1019.7
20260506073041 11 270 0.0 0.0 0.00 0.00 0.00 56 1019.8
20260506071540 11 270 0.0 0.0 0.00 0.00 0.00 56 1019.9
20260506061542 12 270 0.0 0.0 0.00 0.00 0.00 54 1019.3
20260506044527 12 270 0.0 0.0 0.00 0.00 0.00 54 1018.8
20260506043027 12 270 0.0 0.0 0.00 0.00 0.00 53 1018.6
20260506041523 12 270 0.0 0.0 0.00 0.00 0.00 54 1018.3
20260506040022 12 270 0.0 0.0 0.00 0.00 0.00 53 1018.1
20260506034520 12 270 0.0 0.0 0.00 0.00 0.00 53 1017.8
20260506033018 13 270 0.0 0.0 0.00 0.00 0.00 52 1017.6
20260506031517 13 270 0.0 0.0 0.00 0.00 0.00 51 1017.4
20260506030015 13 270 0.0 0.0 0.00 0.00 0.00 51 1017.2
20260506024513 13 270 0.0 0.0 0.00 0.00 0.00 52 1016.9
20260506023012 13 270 0.0 0.0 0.00 0.00 0.00 51 1016.7
20260506021512 15 270 0.0 0.0 0.00 0.00 0.00 49 1016.6
20260506020018 15 270 0.0 0.0 0.00 0.00 0.00 47 1016.4
20260506014514 15 270 0.0 0.0 0.00 0.00 0.00 44 1016.5
20260506013010 15 270 0.0 0.0 0.00 0.00 0.00 45 1016.4
20260506011609 15 270 0.0 0.0 0.00 0.00 0.00 45 1016.3
20260506010009 16 270 0.0 0.0 0.00 0.00 0.00 43 1016.4
20260506004520 16 270 0.0 0.0 0.00 0.00 0.00 42 1016.4
20260506003008 16 270 0.0 0.0 0.00 0.00 0.00 40 1016.2
20260506001508 16 270 0.0 0.0 0.00 0.00 0.00 38 1016.2
20260506000008 16 270 0.0 0.0 0.00 0.00 0.00 43 1016.1
20260505234507 16 270 0.0 0.0 0.00 0.00 0.00 42 1016.2
20260505233006 16 270 0.0 0.0 0.00 0.00 0.00 42 1016.2